2024/04/14 00:00:00, 0.0, 9.5
2024/04/14 00:10:00, 0.0, 9.5
2024/04/14 00:20:00, 0.0, 9.8
2024/04/14 00:30:00, 0.0, 9.7
2024/04/14 00:40:00, 0.0, 9.4
2024/04/14 00:50:00, 0.0, 9.3
2024/04/14 01:00:00, 0.0, 9.4
2024/04/14 01:10:00, 0.0, 9.4
2024/04/14 01:20:00, 0.0,10.1
2024/04/14 01:30:00, 0.0,10.0
2024/04/14 01:40:00, 0.0,10.1
2024/04/14 01:50:00, 0.0, 9.7
2024/04/14 02:00:00, 0.0, 9.7
2024/04/14 02:10:00, 0.0,10.1
2024/04/14 02:20:00, 0.0,10.1
2024/04/14 02:30:00, 0.0,10.0
2024/04/14 02:40:00, 0.0,10.4
2024/04/14 02:50:00, 0.0,10.3
2024/04/14 03:00:00, 0.0,10.0
2024/04/14 03:10:00, 0.0, 9.8
2024/04/14 03:20:00, 0.0, 9.7
2024/04/14 03:30:00, 0.0, 9.7
2024/04/14 03:40:00, 0.0, 9.9
2024/04/14 03:50:00, 0.0, 9.9
2024/04/14 04:00:00, 0.0, 9.6
2024/04/14 04:10:00, 0.0, 9.4
2024/04/14 04:20:00, 0.0, 9.7
2024/04/14 04:30:00, 0.0,10.3
2024/04/14 04:40:00, 0.0, 9.9
2024/04/14 04:50:00, 0.0, 9.8
2024/04/14 05:00:00, 0.0,10.1
2024/04/14 05:10:00, 0.0, 9.9
2024/04/14 05:20:00, 0.0, 9.8
2024/04/14 05:30:00, 0.0, 9.7
2024/04/14 05:40:00, 0.0, 9.3
2024/04/14 05:50:00, 0.0, 9.3
2024/04/14 06:00:00, 0.0, 9.2
2024/04/14 06:10:00, 0.0, 9.8
2024/04/14 06:20:00, 0.0,10.1
2024/04/14 06:30:00, 0.0,10.3
2024/04/14 06:40:00, 0.0,10.2
2024/04/14 06:50:00, 0.0,10.9
2024/04/14 07:00:00, 0.0,12.8
2024/04/14 07:10:00, 0.0,13.7
2024/04/14 07:20:00, 0.0,14.7
2024/04/14 07:30:00, 0.0,15.3
2024/04/14 07:40:00, 0.0,16.0
2024/04/14 07:50:00, 0.0,17.1
2024/04/14 08:00:00, 0.0,18.1
2024/04/14 08:10:00, 0.0,19.4
2024/04/14 08:20:00, 0.0,20.8
2024/04/14 08:30:00, 0.0,21.7
2024/04/14 08:40:00, 0.0,22.2
2024/04/14 08:50:00, 0.0,22.8
2024/04/14 09:00:00, 0.0,23.4
2024/04/14 09:10:00, 0.0,24.2
2024/04/14 09:20:00, 0.0,24.2
2024/04/14 09:30:00, 0.0,25.1
2024/04/14 09:40:00, 0.0,26.8
2024/04/14 09:50:00, 0.0,26.5
2024/04/14 10:00:00, 0.0,27.5
2024/04/14 10:10:00, 0.0,28.9
2024/04/14 10:20:00, 0.0,28.9
2024/04/14 10:30:00, 0.0,29.9
2024/04/14 10:40:00, 0.0,29.4
2024/04/14 10:50:00, 0.0,28.8
2024/04/14 11:00:00, 0.0,29.4
2024/04/14 11:10:00, 0.0,30.0
2024/04/14 11:20:00, 0.0,29.3
2024/04/14 11:30:00, 0.0,29.8
2024/04/14 11:40:00, 0.0,30.6
2024/04/14 11:50:00, 0.0,28.0
2024/04/14 12:00:00, 0.0,26.6
2024/04/14 12:10:00, 0.0,26.0
2024/04/14 12:20:00, 0.0,25.5
2024/04/14 12:30:00, 0.0,25.2
2024/04/14 12:40:00, 0.0,25.2
2024/04/14 12:50:00, 0.0,25.5
2024/04/14 13:00:00, 0.0,25.5
2024/04/14 13:10:00, 0.0,25.7
2024/04/14 13:20:00, 0.0,25.8
2024/04/14 13:30:00, 0.0,25.7
2024/04/14 13:40:00, 0.0,25.7
2024/04/14 13:50:00, 0.0,25.4
2024/04/14 14:00:00, 0.0,25.9
2024/04/14 14:10:00, 0.0,25.1
2024/04/14 14:20:00, 0.0,25.1
2024/04/14 14:30:00, 0.0,24.6
2024/04/14 14:40:00, 0.0,24.7
2024/04/14 14:50:00, 0.0,24.5
2024/04/14 15:00:00, 0.0,24.6
2024/04/14 15:10:00, 0.0,24.5
2024/04/14 15:20:00, 0.0,25.4
2024/04/14 15:30:00, 0.0,24.9
2024/04/14 15:40:00, 0.0,23.8
2024/04/14 15:50:00, 0.0,23.5
2024/04/14 16:00:00, 0.0,23.2
2024/04/14 16:10:00, 0.0,23.2
2024/04/14 16:20:00, 0.0,23.0
2024/04/14 16:30:00, 0.0,22.6
2024/04/14 16:40:00, 0.0,22.4
2024/04/14 16:50:00, 0.0,21.9
2024/04/14 17:00:00, 0.0,20.3
2024/04/14 17:10:00, 0.0,19.0
2024/04/14 17:20:00, 0.0,18.4
2024/04/14 17:30:00, 0.0,17.6
2024/04/14 17:40:00, 0.0,17.3
2024/04/14 17:50:00, 0.0,16.7
2024/04/14 18:00:00, 0.0,17.5
2024/04/14 18:10:00, 0.0,16.6
2024/04/14 18:20:00, 0.0,16.3
2024/04/14 18:30:00, 0.0,15.7
2024/04/14 18:40:00, 0.0,15.1
2024/04/14 18:50:00, 0.0,14.8
2024/04/14 19:00:00, 0.0,14.8
2024/04/14 19:10:00, 0.0,13.9
2024/04/14 19:20:00, 0.0,14.1
2024/04/14 19:30:00, 0.0,13.8
2024/04/14 19:40:00, 0.0,13.7
2024/04/14 19:50:00, 0.0,13.4
2024/04/14 20:00:00, 0.0,13.1
2024/04/14 20:10:00, 0.0,13.3
2024/04/14 20:20:00, 0.0,13.1
2024/04/14 20:30:00, 0.0,12.8
2024/04/14 20:40:00, 0.0,12.8
2024/04/14 20:50:00, 0.0,13.1
2024/04/14 21:00:00, 0.0,13.5
2024/04/14 21:10:00, 0.0,13.8
2024/04/14 21:20:00, 0.0,13.5
2024/04/14 21:30:00, 0.0,13.7
2024/04/14 21:40:00, 0.0,13.7
2024/04/14 21:50:00, 0.0,13.0
2024/04/14 22:00:00, 0.0,12.7
2024/04/14 22:10:00, 0.0,12.7
2024/04/14 22:20:00, 0.0,13.0
2024/04/14 22:30:00, 0.0,12.9
2024/04/14 22:40:00, 0.0,12.9
2024/04/14 22:50:00, 0.0,12.4
2024/04/14 23:00:00, 0.0,12.3
2024/04/14 23:10:00, 0.0,12.5
2024/04/14 23:20:00, 0.0,12.7
2024/04/14 23:30:00, 0.0,12.3
2024/04/14 23:40:00, 0.0,12.3
2024/04/14 23:50:00, 0.0,12.4
